[[{"header":{"parameterUnit":"m.s-1","parameterCategory":1,"la1":30.2991,"la2":30.254,"lo1":-89.0895,"lo2":-89.0444,"dy":0.0017,"dx":0.0017,"nx":28,"ny":28,"refTime":"2025-08-22T03:00:00:Z","depth":0,"parameterNumber":2,"parameterNumberName":"U-component_of_WINDS"},"data":[0,0,0,0,0,0,0,0,0,0,0,0,0,0,0,0,0,0,0,0,0,0,0,0,0,0,0,0,0,0,0,0,0,0,0,0,0,0,0,0,0,0,0,0,0,0,0,0,0,0,0,0,0,0,0,0,0,0,-1.254,-1.254,0,-1.2527,-1.2527,-1.2527,-1.25,-1.2499,-1.2499,-1.2498,-1.2485,-1.2486,-1.2486,0,0,0,0,0,0,0,0,0,0,0,0,0,-1.2541,-1.2541,-1.254,-1.254,-1.254,-1.2527,-1.2527,-1.2527,-1.25,-1.2499,-1.2499,-1.2498,-1.2485,-1.2486,-1.2486,0,0,0,0,0,0,0,0,0,0,0,0,0,-1.2536,-1.2541,-1.254,-1.2525,-1.2523,-1.2527,-1.2527,-1.2527,-1.25,-1.2499,-1.2498,-1.2498,-1.2485,-1.2486,-1.2486,-1.2504,0,0,-1.2487,-1.2487,0,0,0,0,0,0,0,0,-1.2536,-1.2536,-1.2527,-1.2526,-1.2524,-1.2514,-1.2523,-1.2519,-1.25,-1.2509,-1.2498,-1.2497,-1.2496,-1.2495,-1.2495,-1.2503,-1.2503,-1.2487,-1.2487,-1.2487,-1.2487,0,0,0,0,0,0,0,-1.2537,-1.2536,-1.2535,-1.2527,-1.2525,-1.2519,-1.2517,-1.2522,-1.2507,-1.2508,-1.2506,-1.2505,-1.2495,-1.2494,-1.2494,-1.2503,-1.2487,-1.2487,-1.2487,-1.2487,-1.2526,-1.2527,0,0,0,0,0,0,-1.2539,-1.2537,-1.2535,-1.2535,-1.2528,-1.2519,-1.2517,-1.2518,-1.2507,-1.2504,-1.2506,-1.2504,-1.2494,-1.2494,-1.2493,-1.2514,-1.2487,-1.2487,-1.2487,-1.2525,-1.2526,-1.2527,0,0,0,0,0,0,-1.2539,-1.2539,-1.2536,-1.2535,-1.2534,-1.252,-1.2521,-1.2519,-1.2518,-1.2505,-1.2502,-1.2508,-1.2494,-1.2493,-1.2502,-1.2513,-1.2487,-1.2487,-1.2524,-1.2526,-1.2527,-1.2555,0,0,0,0,0,0,-1.254,-1.254,-1.2546,-1.2536,-1.2534,-1.2544,-1.2522,-1.2519,-1.2519,-1.2516,-1.2507,-1.2504,-1.2493,-1.2501,-1.2502,-1.2513,-1.2488,-1.2523,-1.2525,-1.2527,-1.2553,-1.2557,-1.2561,0,0,0,0,0,-1.254,-1.2554,-1.2547,-1.2546,-1.2542,-1.2545,-1.2544,-1.2531,-1.252,-1.2526,-1.2518,-1.2505,-1.2512,-1.2503,-1.2503,-1.2514,-1.2522,-1.2524,-1.2526,-1.2551,-1.2556,-1.256,0,0,0,0,0,0,-1.2566,-1.2553,-1.2544,-1.2556,-1.2552,-1.254,-1.2548,-1.2537,-1.2536,-1.2533,-1.2517,-1.2515,-1.2526,-1.2521,-1.2511,-1.2531,-1.2515,-1.2517,-1.2534,-1.2538,-1.2542,-1.2543,-1.2488,0,0,0,0,0,-1.2574,-1.2577,-1.2565,-1.2576,-1.2575,-1.2562,-1.2563,-1.2553,-1.2548,-1.2546,-1.2539,-1.2535,-1.2536,-1.2537,-1.2538,-1.2553,-1.255,-1.2561,-1.2564,-1.2568,-1.2569,-1.2577,-1.2581,-1.2534,-1.2534,-1.2534,0,0,-1.2589,-1.2582,-1.2584,-1.2582,-1.2577,-1.2581,-1.2561,-1.2565,-1.2568,-1.2547,-1.2554,-1.2549,-1.2543,-1.2555,-1.256,-1.2551,-1.2582,-1.257,-1.2573,-1.2573,-1.2579,-1.2584,-1.2588,-1.2535,-1.2535,-1.2535,0,0,-1.2618,-1.2613,-1.2622,-1.2618,-1.2612,-1.2604,-1.2606,-1.2597,-1.2592,-1.26,-1.2584,-1.2587,-1.259,-1.2587,-1.2585,-1.2615,-1.2602,-1.2615,-1.2635,-1.2642,-1.2646,-1.2649,-1.2659,-1.2663,-1.2617,-1.2617,-1.2618,0,-1.2637,-1.2641,-1.2628,-1.2634,-1.2633,-1.2615,-1.2624,-1.2621,-1.2616,-1.2616,-1.2606,-1.261,-1.2605,-1.2616,-1.2623,-1.2623,-1.2625,-1.2616,-1.2647,-1.265,-1.2653,-1.2662,-1.2666,-1.2619,-1.2619,-1.2619,-1.2619,0,-1.2665,-1.2669,-1.2677,-1.2672,-1.2673,-1.268,-1.2668,-1.267,-1.2661,-1.2654,-1.2662,-1.2655,-1.2654,-1.2656,-1.2647,-1.2666,-1.2661,-1.265,-1.2633,-1.2659,-1.2667,-1.2671,-1.2621,-1.2621,-1.262,-1.262,0,0,-1.2709,-1.2698,-1.2701,-1.2698,-1.2691,-1.2694,-1.2701,-1.27,-1.2702,-1.27,-1.2705,-1.2709,-1.2698,-1.2697,-1.2687,-1.2694,-1.2717,-1.2682,-1.2681,-1.2688,-1.2737,-1.2745,-1.2749,-1.271,-1.271,-1.2711,-1.2738,0,-1.2736,-1.2746,-1.2735,-1.2748,-1.2751,-1.2735,-1.2741,-1.2738,-1.2731,-1.2733,-1.2727,-1.2729,-1.2715,-1.2714,-1.2721,-1.2713,-1.2727,-1.2711,-1.2714,-1.2714,-1.2715,-1.2754,-1.2762,-1.2787,-1.2741,-1.2741,-1.2742,0,-1.2767,-1.2766,-1.278,-1.2772,-1.2773,-1.2779,-1.2778,-1.278,-1.2776,-1.2771,-1.277,-1.2759,-1.2766,-1.275,-1.2759,-1.2749,-1.275,-1.2747,-1.2747,-1.2746,-1.2729,-1.2753,-1.2795,-1.2799,-1.2747,-1.2747,-1.2746,0,-1.2797,-1.2799,-1.2808,-1.2807,-1.2798,-1.2802,-1.2799,-1.2794,-1.2795,-1.2794,-1.2794,-1.2794,-1.2794,-1.2794,-1.2784,-1.2774,-1.2794,-1.2778,-1.279,-1.279,-1.2793,-1.2793,-1.2836,-1.2796,-1.2796,-1.2796,-1.2796,0,-1.2827,-1.2836,-1.2821,-1.2826,-1.2836,-1.2823,-1.2833,-1.2828,-1.2824,-1.2828,-1.2814,-1.2818,-1.2805,-1.2807,-1.2799,-1.2808,-1.2808,-1.2804,-1.2802,-1.2805,-1.2805,-1.2804,-1.2802,-1.2797,-1.2797,-1.2796,-1.2796,0,-1.2861,-1.2852,-1.286,-1.2851,-1.2849,-1.2857,-1.285,-1.2854,-1.2848,-1.2853,-1.2853,-1.2843,-1.2846,-1.2836,-1.2837,-1.2831,-1.2844,-1.2839,-1.2845,-1.2843,-1.2855,-1.2854,-1.2898,-1.2902,-1.2861,-1.2861,-1.2862,0,-1.288,-1.2887,-1.2879,-1.2881,-1.2878,-1.2881,-1.2882,-1.287,-1.2871,-1.2868,-1.2873,-1.2874,-1.2875,-1.288,-1.2873,-1.2874,-1.2868,-1.2883,-1.2868,-1.2871,-1.2867,-1.2867,-1.2867,-1.2886,-1.2887,-1.2887,-1.2887,0,-1.2915,-1.2911,-1.2912,-1.2912,-1.2913,-1.2912,-1.291,-1.2913,-1.29,-1.2902,-1.2905,-1.2905,-1.2907,-1.2908,-1.2908,-1.2905,-1.2894,-1.2893,-1.2895,-1.2898,-1.2901,-1.2899,-1.2853,-1.2891,-1.2891,-1.2891,-1.289,-1.289,-1.2942,-1.2947,-1.2942,-1.2944,-1.2942,-1.2941,-1.2945,-1.2939,-1.2941,-1.2941,-1.2934,-1.2938,-1.2935,-1.2933,-1.2931,-1.2934,-1.2927,-1.2931,-1.2932,-1.2933,-1.2935,-1.2901,-1.2934,-1.2934,-1.2934,-1.2934,-1.2934,0,-1.2975,-1.2972,-1.2974,-1.2972,-1.2974,-1.2965,-1.2963,-1.2965,-1.2968,-1.2966,-1.2967,-1.297,-1.2972,-1.2966,-1.2966,-1.297,-1.2965,-1.2971,-1.297,-1.2969,-1.2941,-1.2939,-1.2975,-1.2975,-1.2975,-1.2975,-1.2975,-1.2975,-1.2993,-1.3001,-1.2996,-1.3003,-1.2999,-1.3003,-1.3002,-1.3002,-1.3,-1.3004,-1.3006,-1.3001,-1.2997,-1.2998,-1.3,-1.2998,-1.2998,-1.3005,-1.3002,-1.2975,-1.2971,-1.2967,-1.2965,-1.3006,-1.3006,-1.3029,-1.3029,-1.3029]},{"header":{"parameterUnit":"m.s-1","parameterCategory":1,"la1":30.2991,"la2":30.254,"lo1":-89.0895,"lo2":-89.0444,"dy":0.0017,"dx":0.0017,"nx":28,"ny":28,"refTime":"2025-08-22T03:00:00:Z","depth":0,"parameterNumber":3,"parameterNumberName":"V-component_of_WINDS"},"data":[0,0,0,0,0,0,0,0,0,0,0,0,0,0,0,0,0,0,0,0,0,0,0,0,0,0,0,0,0,0,0,0,0,0,0,0,0,0,0,0,0,0,0,0,0,0,0,0,0,0,0,0,0,0,0,0,0,0,0.1626,0.1626,0,0.1632,0.1632,0.1632,0.1644,0.1644,0.1645,0.1645,0.165,0.165,0.165,0,0,0,0,0,0,0,0,0,0,0,0,0,0.1624,0.1624,0.1626,0.1626,0.1626,0.1632,0.1632,0.1632,0.1644,0.1644,0.1645,0.1645,0.165,0.165,0.165,0,0,0,0,0,0,0,0,0,0,0,0,0,0.1627,0.1624,0.1625,0.1633,0.1633,0.1632,0.1632,0.1632,0.1644,0.1644,0.1645,0.1645,0.165,0.165,0.165,0.1641,0,0,0.1649,0.1649,0,0,0,0,0,0,0,0,0.1626,0.1627,0.1631,0.1632,0.1633,0.1638,0.1633,0.1635,0.1644,0.164,0.1645,0.1645,0.1645,0.1646,0.1646,0.1641,0.1641,0.1649,0.1649,0.1649,0.1649,0,0,0,0,0,0,0,0.1626,0.1626,0.1628,0.1632,0.1632,0.1635,0.1636,0.1633,0.164,0.164,0.1641,0.1642,0.1646,0.1646,0.1646,0.1641,0.1649,0.1649,0.1649,0.1649,0.163,0.163,0,0,0,0,0,0,0.1625,0.1626,0.1628,0.1628,0.1631,0.1635,0.1636,0.1636,0.164,0.1642,0.1641,0.1642,0.1646,0.1646,0.1646,0.1636,0.1649,0.1649,0.1649,0.163,0.163,0.163,0,0,0,0,0,0,0.1625,0.1625,0.1627,0.1627,0.1628,0.1635,0.1634,0.1636,0.1636,0.1641,0.1643,0.164,0.1646,0.1646,0.1642,0.1637,0.1649,0.1648,0.1631,0.163,0.163,0.1616,0,0,0,0,0,0,0.1625,0.1625,0.1622,0.1627,0.1628,0.1624,0.1634,0.1635,0.1636,0.1637,0.1641,0.1642,0.1647,0.1642,0.1642,0.1637,0.1648,0.1631,0.1631,0.163,0.1617,0.1615,0.1614,0,0,0,0,0,0.1625,0.1618,0.1622,0.1622,0.1624,0.1623,0.1624,0.163,0.1635,0.1632,0.1636,0.1642,0.1637,0.1642,0.1642,0.1636,0.1632,0.1631,0.163,0.1618,0.1616,0.1614,0,0,0,0,0,0,0.1611,0.1619,0.1623,0.1618,0.162,0.1625,0.1621,0.1627,0.1627,0.1628,0.1636,0.1637,0.1631,0.1633,0.1638,0.1628,0.1636,0.1635,0.1627,0.1624,0.1623,0.1622,0.1648,0,0,0,0,0,0.1608,0.1606,0.1613,0.1607,0.1608,0.1615,0.1614,0.1619,0.1621,0.1622,0.1626,0.1627,0.1627,0.1626,0.1625,0.1618,0.1619,0.1614,0.1612,0.1611,0.1609,0.1605,0.1603,0.1627,0.1627,0.1627,0,0,0.16,0.1604,0.1602,0.1605,0.1607,0.1605,0.1615,0.1613,0.1612,0.1622,0.1618,0.1621,0.1623,0.1617,0.1615,0.1619,0.1603,0.161,0.1608,0.1608,0.1604,0.1602,0.16,0.1626,0.1626,0.1626,0,0,0.1585,0.1588,0.1584,0.1586,0.1589,0.1594,0.1593,0.1598,0.16,0.1596,0.1604,0.1602,0.1601,0.1602,0.1603,0.1589,0.1594,0.1589,0.1579,0.1575,0.1573,0.1571,0.1566,0.1564,0.1588,0.1588,0.1588,0,0.1575,0.1573,0.158,0.1578,0.1578,0.1588,0.1584,0.1585,0.1588,0.1588,0.1593,0.1591,0.1594,0.1588,0.1585,0.1585,0.1584,0.1588,0.1573,0.1571,0.157,0.1564,0.1562,0.1587,0.1587,0.1587,0.1587,0,0.156,0.1558,0.1554,0.1557,0.1558,0.1554,0.1561,0.156,0.1565,0.1569,0.1565,0.1569,0.1569,0.1568,0.1573,0.1563,0.1566,0.1571,0.1579,0.1567,0.1562,0.156,0.1586,0.1586,0.1586,0.1586,0,0,0.1535,0.1543,0.1541,0.1543,0.1548,0.1547,0.1544,0.1544,0.1543,0.1545,0.1543,0.1541,0.1547,0.1547,0.1552,0.1549,0.1537,0.1555,0.1555,0.1551,0.1526,0.1521,0.1519,0.1541,0.1541,0.1541,0.1526,0,0.1521,0.1516,0.1523,0.1516,0.1515,0.1525,0.1522,0.1525,0.1528,0.1527,0.1532,0.153,0.1538,0.1538,0.1535,0.1539,0.1532,0.1541,0.1538,0.1538,0.1536,0.1517,0.1511,0.1497,0.1524,0.1524,0.1524,0,0.1503,0.1504,0.1498,0.1503,0.1503,0.15,0.1501,0.1501,0.1504,0.1507,0.1508,0.1514,0.1511,0.1519,0.1515,0.152,0.152,0.1522,0.1521,0.152,0.1529,0.1514,0.1493,0.149,0.1521,0.1521,0.1521,0,0.1484,0.1485,0.1481,0.1482,0.1489,0.1487,0.1489,0.1493,0.1493,0.1494,0.1494,0.1495,0.1495,0.1495,0.1501,0.1507,0.1496,0.1505,0.1498,0.1497,0.1494,0.1494,0.1471,0.1495,0.1495,0.1495,0.1495,0,0.1467,0.1462,0.1473,0.147,0.1466,0.1474,0.1469,0.1472,0.1476,0.1474,0.1482,0.148,0.1489,0.1488,0.1493,0.1488,0.1488,0.149,0.1491,0.1489,0.1488,0.1488,0.1488,0.1495,0.1495,0.1495,0.1495,0,0.1445,0.1452,0.1449,0.1455,0.1457,0.1453,0.1459,0.1456,0.1461,0.1459,0.1459,0.1466,0.1465,0.1471,0.1471,0.1475,0.1467,0.1471,0.1466,0.1467,0.1459,0.1459,0.1434,0.1431,0.1458,0.1458,0.1458,0,0.1433,0.143,0.1436,0.1436,0.1438,0.1437,0.1438,0.1446,0.1446,0.145,0.1447,0.1447,0.1447,0.1445,0.145,0.145,0.1453,0.1444,0.1453,0.145,0.1452,0.1451,0.1451,0.1442,0.1442,0.1441,0.1441,0,0.141,0.1414,0.1414,0.1416,0.1416,0.1418,0.142,0.1419,0.1428,0.1428,0.1427,0.1427,0.1428,0.1427,0.1429,0.1431,0.1437,0.1439,0.1437,0.1434,0.1431,0.1431,0.146,0.1439,0.1439,0.1439,0.1439,0.1439,0.1392,0.139,0.1394,0.1394,0.1397,0.1399,0.1397,0.1402,0.1402,0.1403,0.1408,0.1407,0.141,0.1412,0.1414,0.1413,0.1417,0.1414,0.1414,0.1413,0.1411,0.1432,0.1413,0.1413,0.1413,0.1413,0.1413,0,0.1369,0.1373,0.1373,0.1376,0.1376,0.1383,0.1386,0.1385,0.1384,0.1387,0.1387,0.1386,0.1386,0.1391,0.1392,0.139,0.1393,0.1389,0.1389,0.1389,0.1408,0.1409,0.1387,0.1387,0.1387,0.1387,0.1387,0.1387,0.1357,0.1353,0.1358,0.1355,0.1359,0.1358,0.1359,0.136,0.1363,0.1362,0.1362,0.1366,0.1369,0.137,0.137,0.1372,0.1371,0.1367,0.1369,0.1386,0.1388,0.1391,0.1392,0.1367,0.1367,0.1351,0.1351,0.1351]}]]